Showing default

NIGCOMSAT 1R, 38014

Orbit data source: Space-Track

NIGCOMSAT 1R, 38014 is a payload satellite owned by Nigcomsat (NG) in GEO that was launched on Mon, 19 Dec 2011 UTC via a CHANG ZHENG 3B launch vehicle from the Xichang Space Center, China (XSC). Payloads include a variety of satellites, spacecraft, and rockets equipped with specific instruments for various scientific and technological missions. These include communications satellites like Starlink; space stations such as the ISS; scientific satellites like the Hubble; Earth observation satellites from companies like Planet Labs, Umbra, and HawkEye 360; GPS; miniature CubeSats for education and research; and military/defense satellites.

Not visible in the next 10 days
NIGCOMSAT 1R details
Identifier
38014, 2011-077A
Orbit
GEO
Last TLE update11 hours ago
Origin
Flag of NGNigcomsat (NG / NIG)
ManufacturerCAST
MissionOperational Civil Communications
Bus & MotorDFH-4, DFH-4 LAE
Mass~5,086 kg wet, ~2,500 kg dry
Launch date (UTC)
2011-12-19 (13 years ago)
Launch vehicle
CHANG ZHENG 3B
Launch site
Xichang Space Center, China (XSC)
Object type
Payload
Rocket body
Debris
Shape & HBRBox + 2 Pan, 30 m
Radar Cross Section34.063 m², Large (>1 m²)

Expand to show TLE details & history

TLE from 11 hours ago
0 NIGCOMSAT 1R
1 38014U 11077A   24361.03771399  .00000173  00000-0  00000+0 0  9997
2 38014   0.0505 121.9730 0001473 191.4658 197.6556  1.00270133 47636
Epoch: 2024-12-26T00:54Z
Definitive object data (Epoch: 2024-12-26T00:54:18.488Z)
Latitude0.03397°
Longitude42.48202°
Altitude35,792.454 km
Speed3.074 km/s
True Right ascension10h 04m 19s
True Declination0° 02' 02"
Sunlit
Object was in daylight at TLE epoch
Visualization TLE readout
Latitude-0.02826°
Longitude-155.8095°
Altitude35,780.282 km
Speed3.075 km/s
Apparent Right ascension21h 04m 08s
Apparent Declination-5° 02' 34"
Sunlit
Object is in daylight
Visualization observer readout
Local Sidereal Time11:00:45
Azimuth44.675° NE
Elevation-46.356°
Doppler factor1
Orbital elements
Apogee altitude35,794.34 km
Perigee altitude35,781.917 km
Semi-major axis42,166.265 km
Eccentricity0.0001473
Inclination0.0505°
RAAN121.973°
Arg. of periapsis191.4658°
True anomaly197.65048°
Mean anomaly197.6556°
Eccentric anomaly197.65304°
Mean motion0.25067 °/min
BSTARUnknown
Orbital period1436.17 mins
Loading historical data...
38014 neighbors
Authenticating...
Loading maneuver chart data...
Loading historical data...
Loading historical data...
Loading historical data...
Loading historical data...
Loading historical data...
Loading historical data...
Loading historical data...

NIGCOMSAT 1R Visibility forecast

Observer location: undefined°, undefined

NIGCOMSAT 1R is not visible in the next 10 days
Span
Click to sort rows by Start time (UTC) header in descending order
Start Az.
Max El. time (UTC)
Max El. Az.
Max El.
End time (UTC)
End Az.
|